• In Netherlands
  • List of Countries
  • For 7 days
  • Water Temperature
  • Satellite Maps
  • Weather Map
  • Weather Widgets
  • user-avatar
    Login

    Hourly Weather Yerevan

    Today, 23 July, Sunday

    Time Temperature Precipitation Wind Pressure Humidity
    00:00 +27°C° 0 mm 3 mps 689 mmHg 50%
    01:00 +26°C° 0 mm 2 mps 689 mmHg 51%
    02:00 +25°C° 0 mm 2 mps 688 mmHg 52%
    03:00 +25°C° 0 mm 2 mps 688 mmHg 53%
    04:00 +25°C° 0 mm 2 mps 688 mmHg 53%
    05:00 +25°C° 0 mm 2 mps 688 mmHg 52%
    06:00 +26°C° 0 mm 2 mps 688 mmHg 52%
    07:00 +28°C° 0 mm 2 mps 688 mmHg 45%
    08:00 +30°C° 0 mm 2 mps 688 mmHg 39%
    09:00 +32°C° 0 mm 2 mps 688 mmHg 32%
    10:00 +35°C° 0 mm 2 mps 688 mmHg 29%
    11:00 +36°C° 0 mm 2 mps 688 mmHg 27%
    12:00 +37°C° 0 mm 2 mps 687 mmHg 24%
    13:00 +38°C° 0 mm 2 mps 687 mmHg 23%
    14:00 +38°C° 0 mm 2 mps 687 mmHg 23%
    15:00 +39°C° 0 mm 3 mps 686 mmHg 22%
    16:00 +38°C° 0.1 mm 3 mps 686 mmHg 25%
    17:00 +37°C° 0.1 mm 4 mps 686 mmHg 28%
    18:00 +36°C° 0.1 mm 4 mps 686 mmHg 32%
    19:00 +34°C° 0 mm 4 mps 686 mmHg 38%
    20:00 +30°C° 0 mm 4 mps 686 mmHg 44%
    21:00 +28°C° 0 mm 4 mps 687 mmHg 50%
    22:00 +27°C° 0 mm 4 mps 687 mmHg 53%
    23:00 +26°C° 0 mm 4 mps 687 mmHg 57%

    Tomorrow, 24 July, Monday

    Time Temperature Precipitation Wind Pressure Humidity
    00:00 +25°C° 0 mm 3 mps 687 mmHg 61%
    01:00 +25°C° 0 mm 3 mps 687 mmHg 64%
    02:00 +24°C° 0 mm 3 mps 687 mmHg 66%
    03:00 +22°C° 0 mm 3 mps 687 mmHg 69%
    04:00 +24°C° 0 mm 3 mps 687 mmHg 68%
    05:00 +24°C° 0 mm 3 mps 687 mmHg 67%
    06:00 +24°C° 0 mm 2 mps 687 mmHg 67%
    07:00 +26°C° 0 mm 2 mps 687 mmHg 59%
    08:00 +28°C° 0 mm 2 mps 687 mmHg 51%
    09:00 +30°C° 0 mm 2 mps 687 mmHg 43%
    10:00 +31°C° 0.1 mm 2 mps 686 mmHg 39%
    11:00 +34°C° 0.1 mm 2 mps 686 mmHg 35%
    12:00 +35°C° 0.1 mm 2 mps 686 mmHg 30%
    13:00 +36°C° 0.1 mm 3 mps 685 mmHg 29%
    14:00 +36°C° 0.1 mm 3 mps 685 mmHg 28%
    15:00 +37°C° 0.1 mm 3 mps 685 mmHg 27%
    16:00 +36°C° 0.4 mm 3 mps 685 mmHg 30%
    17:00 +35°C° 0.4 mm 4 mps 684 mmHg 32%
    18:00 +34°C° 0.4 mm 4 mps 684 mmHg 35%
    19:00 +31°C° 0.1 mm 3 mps 684 mmHg 41%
    20:00 +29°C° 0.1 mm 3 mps 685 mmHg 47%
    21:00 +27°C° 0.1 mm 3 mps 685 mmHg 54%
    22:00 +26°C° 0 mm 3 mps 685 mmHg 56%
    23:00 +26°C° 0 mm 2 mps 685 mmHg 59%

    Day after tomorrow, 25 July, Tuesday

    Time Temperature Precipitation Wind Pressure Humidity
    00:00 +25°C° 0 mm 2 mps 685 mmHg 61%
    01:00 +25°C° 0 mm 2 mps 685 mmHg 63%
    02:00 +24°C° 0 mm 2 mps 685 mmHg 64%
    03:00 +24°C° 0 mm 2 mps 685 mmHg 66%
    04:00 +24°C° 0 mm 2 mps 685 mmHg 64%
    05:00 +24°C° 0 mm 2 mps 685 mmHg 63%
    06:00 +24°C° 0 mm 2 mps 685 mmHg 62%
    07:00 +26°C° 0.1 mm 2 mps 685 mmHg 54%
    08:00 +28°C° 0.1 mm 2 mps 685 mmHg 47%
    09:00 +30°C° 0.1 mm 2 mps 685 mmHg 40%
    10:00 +32°C° 0.1 mm 2 mps 685 mmHg 37%
    11:00 +34°C° 0.1 mm 2 mps 685 mmHg 33%
    12:00 +36°C° 0.1 mm 2 mps 685 mmHg 29%
    13:00 +36°C° 0.1 mm 2 mps 684 mmHg 28%
    14:00 +36°C° 0.1 mm 2 mps 684 mmHg 27%
    15:00 +37°C° 0.1 mm 2 mps 684 mmHg 26%
    16:00 +36°C° 0.3 mm 2 mps 684 mmHg 28%
    17:00 +35°C° 0.3 mm 2 mps 684 mmHg 30%
    18:00 +35°C° 0.3 mm 2 mps 684 mmHg 31%
    19:00 +32°C° 0.2 mm 2 mps 684 mmHg 38%
    20:00 +30°C° 0.2 mm 2 mps 684 mmHg 44%
    21:00 +27°C° 0.2 mm 2 mps 685 mmHg 50%
    22:00 +27°C° 0.1 mm 2 mps 685 mmHg 52%
    23:00 +26°C° 0.1 mm 2 mps 685 mmHg 54%

    26 July, Wednesday

    Time Temperature Precipitation Wind Pressure Humidity
    00:00 +25°C° 0.1 mm 3 mps 685 mmHg 56%
    01:00 +25°C° 0 mm 2 mps 685 mmHg 57%
    02:00 +24°C° 0 mm 2 mps 685 mmHg 58%
    03:00 +24°C° 0 mm 2 mps 685 mmHg 59%
    04:00 +24°C° 0 mm 2 mps 685 mmHg 58%
    05:00 +25°C° 0 mm 1 mps 685 mmHg 57%
    06:00 +25°C° 0 mm 1 mps 685 mmHg 56%
    07:00 +27°C° 0 mm 1 mps 686 mmHg 48%
    08:00 +29°C° 0 mm 1 mps 686 mmHg 40%
    09:00 +31°C° 0 mm 2 mps 686 mmHg 32%
    10:00 +34°C° 0 mm 2 mps 686 mmHg 29%
    11:00 +35°C° 0 mm 2 mps 686 mmHg 25%
    12:00 +37°C° 0 mm 2 mps 686 mmHg 22%
    13:00 +37°C° 0 mm 2 mps 686 mmHg 21%
    14:00 +38°C° 0 mm 2 mps 686 mmHg 19%
    15:00 +38°C° 0 mm 2 mps 686 mmHg 18%
    16:00 +38°C° 0 mm 2 mps 686 mmHg 20%
    17:00 +37°C° 0 mm 2 mps 686 mmHg 22%
    18:00 +35°C° 0 mm 1 mps 686 mmHg 24%
    19:00 +34°C° 0 mm 2 mps 686 mmHg 31%
    20:00 +31°C° 0 mm 2 mps 687 mmHg 38%
    21:00 +28°C° 0 mm 3 mps 687 mmHg 45%
    22:00 +28°C° 0.1 mm 3 mps 687 mmHg 48%
    23:00 +27°C° 0.1 mm 2 mps 687 mmHg 51%

    27 July, Thursday

    Time Temperature Precipitation Wind Pressure Humidity
    00:00 +26°C° 0.1 mm 2 mps 688 mmHg 54%
    01:00 +26°C° 0.1 mm 2 mps 688 mmHg 55%
    02:00 +25°C° 0.1 mm 2 mps 688 mmHg 56%
    03:00 +24°C° 0.1 mm 2 mps 688 mmHg 57%
    04:00 +25°C° 0 mm 2 mps 688 mmHg 56%
    05:00 +25°C° 0 mm 1 mps 688 mmHg 56%
    06:00 +26°C° 0 mm 1 mps 689 mmHg 55%
    07:00 +28°C° 0 mm 1 mps 689 mmHg 48%
    08:00 +30°C° 0 mm 1 mps 689 mmHg 41%
    09:00 +32°C° 0 mm 1 mps 689 mmHg 34%
    10:00 +34°C° 0 mm 1 mps 689 mmHg 30%
    11:00 +36°C° 0 mm 2 mps 689 mmHg 26%
    12:00 +38°C° 0 mm 2 mps 689 mmHg 23%
    13:00 +38°C° 0 mm 2 mps 689 mmHg 22%
    14:00 +39°C° 0 mm 2 mps 689 mmHg 20%
    15:00 +40°C° 0 mm 2 mps 688 mmHg 19%
    16:00 +39°C° 0 mm 2 mps 688 mmHg 21%
    17:00 +38°C° 0 mm 2 mps 688 mmHg 23%
    18:00 +38°C° 0 mm 2 mps 688 mmHg 25%
    19:00 +35°C° 0 mm 2 mps 689 mmHg 31%
    20:00 +32°C° 0 mm 2 mps 689 mmHg 38%
    21:00 +29°C° 0 mm 3 mps 689 mmHg 44%
    22:00 +28°C° 0 mm 2 mps 690 mmHg 46%
    23:00 +28°C° 0 mm 2 mps 690 mmHg 48%

    28 July, Friday

    Time Temperature Precipitation Wind Pressure Humidity
    00:00 +27°C° 0 mm 2 mps 690 mmHg 49%
    01:00 +27°C° 0 mm 2 mps 690 mmHg 51%
    02:00 +26°C° 0 mm 2 mps 690 mmHg 52%
    03:00 +26°C° 0 mm 2 mps 690 mmHg 54%
    04:00 +26°C° 0 mm 1 mps 691 mmHg 53%
    05:00 +26°C° 0 mm 1 mps 691 mmHg 53%
    06:00 +27°C° 0 mm 1 mps 691 mmHg 52%
    07:00 +29°C° 0 mm 1 mps 691 mmHg 45%
    08:00 +31°C° 0 mm 1 mps 692 mmHg 39%
    09:00 +34°C° 0 mm 1 mps 692 mmHg 32%
    10:00 +36°C° 0 mm 2 mps 691 mmHg 28%
    11:00 +37°C° 0 mm 2 mps 691 mmHg 25%
    12:00 +39°C° 0 mm 2 mps 691 mmHg 22%
    13:00 +40°C° 0 mm 2 mps 691 mmHg 21%
    14:00 +40°C° 0 mm 2 mps 691 mmHg 20%
    15:00 +42°C° 0 mm 3 mps 690 mmHg 19%
    16:00 +40°C° 0 mm 3 mps 690 mmHg 21%
    17:00 +39°C° 0 mm 3 mps 690 mmHg 24%
    18:00 +39°C° 0 mm 3 mps 690 mmHg 26%
    19:00 +36°C° 0 mm 3 mps 691 mmHg 32%
    20:00 +34°C° 0 mm 3 mps 691 mmHg 38%
    21:00 +30°C° 0 mm 3 mps 691 mmHg 44%
    22:00 +30°C° 0 mm 3 mps 691 mmHg 45%
    23:00 +29°C° 0 mm 2 mps 691 mmHg 47%
    Show more